Wind_Speed
0 3 6 4 11 19 10 9 12 14 14 14 17 19 19 18 12 11 10 10 10 10 7 6 5 6 5 2 8 9 10 10 10 15 23 30 29 28 31 31 32 36 36
11 4 6 7 6 11 10 7 9 8 14 12 12 9 9 7 7 9 12 15 14 13 12 9 10 10 9 7 6 8 8 11 14 14 14 24 34 35 41 37 45 43 40
20 15 16 11 9 13 11 16 15 12 8 12 14 12 6 7 9 11 14 16 17 17 15 15 17 16 15 14 13 12 12 14 16 16 16 19 22 27 31 33 36 36 38
9 13 9 16 14 12 19 24 21 18 19 19 18 12 9 7 9 13 17 20 21 21 22 23 23 22 22 23 21 20 20 20 20 22 24 25 26 28 30 32 33 35 37
12 9 9 9 12 9 10 20 21 14 13 17 19 17 16 16 16 17 17 19 22 24 28 28 29 28 28 26 26 26 27 27 26 27 28 30 32 34 37 39 40 42 44
28 27 20 13 13 12 9 12 18 17 15 17 20 18 17 14 11 14 18 21 24 25 25 29 32 34 34 36 34 35 34 34 33 32 33 36 39 43 45 47 49 51 54
25 30 26 15 15 17 10 10 10 17 21 21 22 16 14 16 18 20 22 27 30 32 33 34 35 37 39 43 43 43 43 44 45 45 47 50 50 51 52 54 57 59 62
27 30 34 30 24 20 17 16 16 12 12 13 18 18 19 20 17 26 30 31 35 38 40 43 39 41 43 43 44 46 46 47 49 51 54 56 58 60 60 63 65 67 67
25 30 32 29 26 23 20 23 24 20 17 20 23 27 25 23 36 41 41 41 41 41 41 43 40 42 44 46 48 49 51 52 55 57 60 64 66 68 69 69 71 70 71
28 29 28 28 25 26 26 27 29 29 28 26 25 29 31 35 42 44 46 46 46 46 45 44 42 44 44 46 48 51 54 57 59 61 64 66 68 69 71 72 72 73 73
31 30 30 26 29 29 28 32 35 36 34 30 28 33 37 43 45 42 43 47 46 44 43 42 40 42 47 49 50 54 56 58 61 62 64 66 68 69 69 70 71 72 74
30 25 23 23 27 29 34 38 41 39 35 36 40 42 43 44 45 42 44 45 45 42 41 40 39 39 40 44 48 50 51 53 54 58 61 64 67 69 71 74 77 80 83
37 38 37 35 35 36 39 42 44 41 38 42 46 48 47 51 47 48 48 44 44 41 41 40 40 41 41 44 48 51 55 59 63 66 68 71 73 76 79 81 83 86 88
47 47 49 52 51 51 50 48 49 50 52 50 48 45 43 42 46 46 47 47 47 47 47 48 47 49 52 55 59 63 66 69 72 74 76 80 82 84 86 87 88 91 93
46 47 47 50 52 53 51 49 50 50 43 44 50 47 47 45 46 48 50 50 51 52 53 52 52 55 62 65 69 72 74 76 79 82 84 85 86 89 91 93 95 94 94
51 53 54 53 48 49 51 50 48 44 43 43 46 46 42 45 49 51 54 55 55 54 54 56 61 65 70 74 75 77 80 82 84 85 87 89 93 95 94 93 92 94 96
52 54 57 57 58 56 54 50 45 46 50 47 46 48 49 53 56 57 57 57 55 56 62 67 72 76 79 81 81 83 85 86 88 91 94 95 94 93 95 94 93 92 88
52 56 59 60 62 59 58 53 50 50 50 50 52 55 55 58 58 60 61 61 62 67 71 76 81 84 86 86 87 90 92 93 94 94 93 92 93 92 88 85 81 80 77
52 53 57 61 62 59 58 57 55 57 57 59 58 59 61 62 63 67 68 69 73 77 82 87 89 90 90 91 93 95 95 96 96 94 93 90 85 80 78 76 73 72 74
55 56 58 58 60 65 60 59 61 61 60 60 63 65 67 69 72 74 76 79 83 86 90 92 93 92 95 96 95 96 96 93 90 87 82 79 79 75 72 72 73 72 73
58 59 62 63 62 61 62 63 64 65 67 70 73 75 77 78 79 82 84 86 89 92 94 95 96 96 97 96 97 95 92 89 83 79 79 72 69 70 69 69 71 69 68
57 59 63 67 70 72 71 70 71 73 74 74 76 78 79 81 83 85 88 90 92 94 97 98 98 97 96 96 93 89 83 79 77 71 67 68 67 68 68 66 63 63 63
62 62 64 67 69 71 73 73 74 74 76 79 80 82 84 86 88 90 91 92 94 95 96 96 94 94 94 89 83 79 77 73 67 67 66 65 65 63 60 60 60 60 60
70 70 71 71 73 74 75 75 78 79 81 83 85 88 90 91 93 94 94 95 95 96 95 93 92 88 84 79 79 77 71 66 66 64 64 62 59 57 56 56 57 58 59
80 79 81 82 82 82 83 83 85 86 86 88 89 90 90 92 93 94 95 94 93 91 89 86 84 81 77 76 74 69 66 65 63 62 61 59 56 55 57 60 62 63 62
89 89 88 87 86 87 89 91 93 91 92 93 92 93 92 92 93 93 89 89 87 83 79 78 75 74 74 72 67 67 65 62 62 60 58 54 55 59 62 63 64 64 64
Wind_Direction
102 117 144 122 198 220 225 242 247 251 251 260 273 274 271 270 257 292 286 304 323 317 304 287 283 308 308 251 238 266 272 273 278 271 239 231 237 252 267 267 257 266 271
234 251 216 230 216 207 228 246 253 270 260 248 270 271 249 224 287 293 297 305 308 314 307 282 281 292 297 295 283 265 261 268 264 267 262 255 250 256 258 266 271 271 272
253 265 268 251 266 249 245 241 247 264 270 263 271 278 283 254 267 282 292 295 296 297 298 291 287 286 286 283 279 278 273 274 278 283 280 270 266 266 266 268 271 274 276
264 259 273 279 260 282 254 251 249 252 259 266 276 273 286 293 308 305 299 291 288 288 291 291 289 280 278 280 276 273 273 273 277 280 282 282 278 279 279 277 276 275 275
230 259 263 279 284 294 304 260 246 234 258 263 263 265 273 286 301 307 297 300 297 296 296 290 285 280 276 273 267 267 266 266 269 272 274 281 282 282 281 279 277 277 277
240 254 269 292 283 287 319 302 259 249 244 260 270 281 285 294 328 326 309 303 301 299 299 294 287 276 274 272 269 267 267 269 272 276 278 283 284 283 284 282 280 278 278
227 244 255 270 281 285 296 298 306 284 278 275 288 293 307 305 303 315 316 312 308 301 295 292 288 287 283 275 273 274 274 275 275 275 280 285 286 284 283 283 281 281 280
240 233 242 256 276 274 268 264 273 301 301 292 282 284 278 289 286 319 310 307 298 294 289 289 287 282 282 283 282 281 281 282 282 281 282 284 285 284 283 281 281 280 281
240 237 239 251 259 266 261 270 271 285 279 293 280 276 265 281 302 305 305 305 294 291 289 286 283 276 274 275 277 280 281 281 282 281 281 281 281 282 284 284 284 283 284
232 235 240 248 248 250 251 255 264 273 284 293 273 275 276 293 306 299 299 299 299 293 290 289 281 274 277 279 281 281 281 281 282 284 286 288 289 288 287 288 287 286 286
243 249 241 247 247 251 261 265 269 271 275 274 283 286 287 291 302 295 293 295 295 295 295 291 288 280 275 278 281 283 285 287 288 289 289 290 291 291 291 291 291 291 291
243 241 245 253 260 263 260 257 262 265 270 271 275 280 288 295 295 295 300 302 303 300 300 299 297 292 289 287 287 287 289 291 292 293 294 294 295 294 294 293 291 290 289
236 236 246 248 245 243 249 255 264 267 273 276 284 283 283 289 291 298 299 301 299 300 300 298 298 299 299 299 299 300 300 299 297 297 297 297 296 295 294 294 293 292 293
242 247 252 255 255 257 257 260 265 268 270 276 282 277 282 289 291 293 297 297 300 298 297 299 299 300 301 303 303 302 301 301 300 299 298 299 298 297 296 295 295 293 292
236 243 253 257 260 261 266 269 270 270 272 277 276 281 283 287 291 295 295 294 294 294 295 296 297 300 303 304 303 303 302 301 301 301 301 300 299 298 296 295 296 296 294
239 241 244 250 251 254 256 259 264 268 277 276 281 284 284 286 293 294 292 292 292 293 295 297 300 301 301 303 303 302 304 305 303 301 300 300 300 299 298 297 297 296 296
246 249 248 251 255 258 259 262 270 272 279 281 282 282 285 289 292 292 293 295 292 293 295 298 302 302 303 303 303 306 306 305 305 303 303 301 300 299 298 298 296 297 298
256 255 256 258 255 258 264 272 274 277 277 279 280 282 286 288 289 292 292 290 291 294 297 299 301 302 301 303 305 305 306 306 305 304 302 302 301 300 299 301 300 300 300
256 261 265 265 263 266 268 270 274 277 279 279 283 286 286 288 291 292 293 294 295 295 297 298 300 300 303 304 305 306 307 306 305 304 302 301 302 302 302 302 302 301 301
264 266 266 268 270 270 273 275 276 277 278 282 286 288 289 289 290 291 293 294 294 295 296 298 300 301 302 303 305 306 306 306 305 304 304 303 303 304 303 303 302 302 301
265 268 269 270 271 271 273 274 277 281 284 285 285 286 288 289 290 291 292 293 294 295 297 299 300 301 302 304 305 306 305 304 305 305 305 304 303 303 303 303 303 303 303
268 270 271 271 271 272 275 276 278 279 281 280 281 283 285 287 289 290 291 293 294 296 296 298 299 301 303 304 305 305 306 307 305 304 303 303 304 303 304 304 304 305 305
271 271 272 271 271 272 274 275 277 279 280 281 283 284 285 287 288 289 290 293 293 294 296 298 300 302 302 301 303 305 305 305 304 304 305 305 305 305 306 306 307 309 309
272 274 276 277 276 276 276 278 280 280 281 282 282 283 284 286 288 290 291 292 294 295 298 300 300 299 300 303 305 305 305 304 305 305 306 306 307 307 310 312 313 314 313
274 275 277 278 278 277 277 278 279 280 281 282 283 284 286 286 288 289 290 292 294 296 296 297 297 300 302 303 303 302 303 304 305 306 306 307 308 311 313 313 313 314 315
274 275 275 276 276 277 278 279 281 282 282 282 282 283 286 286 286 289 291 291 292 292 294 296 299 300 301 302 301 302 304 304 306 306 307 308 310 313 314 315 315 315 316
Height
10890 10889 10890 10891 10891 10893 10897 10896 10895 10897 10898 10898 10898 10896 10894 10894 10895 10895 10895 10894 10892 10891 10889 10888 10888 10886 10885 10882 10881 10880 10879 10877 10875 10873 10873 10872 10872 10872 10870 10871 10870 10869 10868
10890 10889 10889 10889 10890 10890 10890 10890 10892 10892 10892 10894 10894 10892 10890 10889 10890 10891 10891 10890 10889 10889 10887 10885 10884 10882 10880 10879 10877 10875 10874 10872 10871 10869 10868 10867 10866 10865 10864 10862 10862 10860 10858
10888 10887 10888 10887 10887 10887 10888 10888 10888 10889 10889 10890 10891 10889 10887 10887 10887 10887 10887 10886 10886 10885 10883 10882 10880 10878 10876 10874 10872 10870 10868 10867 10865 10864 10863 10861 10860 10858 10857 10855 10853 10851 10849
10883 10884 10884 10885 10884 10884 10883 10884 10884 10884 10885 10887 10887 10886 10884 10883 10883 10883 10882 10882 10881 10879 10878 10876 10874 10871 10870 10868 10866 10864 10862 10860 10858 10857 10855 10854 10852 10850 10848 10845 10843 10841 10838
10880 10880 10882 10881 10881 10880 10879 10879 10878 10879 10881 10883 10882 10880 10880 10879 10878 10877 10876 10876 10875 10874 10872 10870 10867 10865 10863 10861 10859 10856 10854 10852 10850 10848 10847 10845 10843 10840 10838 10835 10832 10829 10826
10875 10876 10877 10877 10875 10873 10874 10875 10875 10875 10876 10877 10877 10875 10873 10873 10872 10871 10870 10869 10868 10867 10865 10863 10861 10858 10855 10853 10850 10848 10846 10843 10841 10838 10836 10834 10832 10828 10826 10822 10818 10815 10811
10868 10869 10871 10871 10869 10870 10869 10871 10871 10870 10871 10871 10872 10870 10868 10867 10866 10865 10864 10862 10859 10858 10856 10854 10851 10849 10846 10842 10840 10838 10836 10833 10830 10828 10824 10821 10818 10814 10811 10807 10803 10799 10795
10860 10861 10864 10864 10864 10865 10865 10864 10866 10865 10865 10865 10865 10864 10862 10861 10860 10857 10855 10852 10850 10847 10844 10842 10840 10837 10834 10831 10829 10827 10824 10821 10818 10814 10810 10806 10802 10797 10793 10789 10784 10779 10775
10852 10854 10855 10855 10857 10859 10858 10858 10858 10859 10859 10859 10858 10856 10855 10854 10853 10848 10845 10841 10838 10834 10829 10827 10825 10822 10820 10818 10815 10813 10810 10806 10803 10799 10794 10790 10785 10780 10775 10769 10764 10759 10754
10843 10845 10847 10848 10849 10851 10850 10851 10851 10851 10851 10850 10850 10849 10847 10845 10842 10838 10835 10830 10826 10821 10814 10810 10808 10806 10804 10802 10800 10797 10793 10790 10785 10781 10777 10772 10767 10760 10754 10748 10742 10735 10730
10836 10838 10839 10840 10841 10841 10842 10843 10842 10843 10842 10842 10840 10838 10837 10834 10830 10827 10823 10819 10813 10807 10802 10797 10792 10789 10788 10787 10784 10781 10778 10774 10769 10764 10759 10753 10748 10741 10734 10726 10719 10712 10706
10828 10829 10830 10832 10832 10832 10832 10833 10833 10833 10832 10832 10830 10827 10825 10822 10819 10814 10810 10805 10800 10796 10792 10787 10782 10778 10775 10773 10770 10767 10763 10759 10754 10748 10742 10735 10728 10721 10714 10706 10698 10691 10683
10819 10821 10821 10821 10822 10822 10821 10823 10823 10822 10821 10821 10819 10817 10814 10810 10806 10801 10797 10793 10789 10784 10780 10776 10772 10767 10764 10760 10756 10752 10747 10741 10735 10729 10722 10715 10707 10699 10691 10682 10673 10664 10656
10806 10808 10808 10810 10811 10811 10810 10812 10812 10811 10810 10809 10806 10803 10799 10795 10792 10788 10784 10781 10776 10772 10767 10762 10758 10754 10750 10746 10741 10735 10728 10722 10714 10706 10698 10690 10682 10672 10663 10654 10645 10636 10626
10796 10798 10798 10797 10797 10798 10798 10797 10797 10798 10796 10794 10792 10788 10785 10781 10778 10774 10771 10767 10763 10758 10753 10748 10744 10740 10735 10728 10722 10715 10706 10697 10689 10681 10671 10662 10653 10644 10634 10623 10613 10603 10593
10784 10785 10786 10786 10786 10786 10786 10784 10783 10783 10782 10779 10776 10773 10770 10767 10764 10760 10755 10751 10747 10742 10737 10732 10728 10722 10715 10708 10700 10691 10683 10674 10665 10655 10645 10635 10625 10613 10602 10592 10580 10569 10559
10771 10772 10772 10772 10773 10773 10772 10771 10769 10768 10766 10763 10761 10758 10754 10752 10747 10743 10739 10734 10729 10724 10719 10714 10708 10701 10693 10685 10677 10668 10658 10648 10638 10628 10618 10606 10593 10582 10571 10560 10550 10539 10529
10759 10759 10760 10761 10761 10759 10757 10756 10754 10753 10751 10747 10744 10741 10738 10734 10729 10725 10720 10715 10710 10704 10699 10694 10687 10680 10670 10661 10653 10642 10632 10622 10611 10599 10588 10577 10565 10553 10542 10533 10523 10513 10504
10744 10744 10745 10744 10744 10743 10742 10741 10739 10737 10733 10730 10727 10724 10720 10716 10710 10706 10701 10696 10691 10685 10678 10672 10664 10656 10647 10637 10626 10616 10605 10594 10582 10570 10559 10548 10537 10527 10517 10508 10500 10491 10482
10729 10729 10729 10729 10728 10728 10726 10725 10722 10720 10717 10713 10710 10706 10702 10696 10692 10686 10681 10675 10669 10663 10655 10647 10640 10631 10622 10612 10602 10590 10579 10567 10556 10544 10533 10523 10514 10504 10495 10488 10480 10470 10462
10712 10712 10713 10713 10712 10710 10709 10707 10704 10702 10699 10695 10690 10686 10682 10676 10670 10665 10660 10653 10646 10639 10631 10622 10615 10606 10596 10587 10576 10565 10554 10543 10531 10521 10512 10503 10494 10486 10479 10470 10461 10451 10443
10697 10696 10695 10694 10693 10692 10689 10687 10683 10680 10677 10673 10669 10665 10660 10654 10649 10644 10637 10632 10624 10617 10607 10598 10589 10580 10570 10560 10550 10540 10530 10520 10511 10503 10494 10486 10478 10469 10460 10452 10443 10434 10425
10680 10679 10678 10676 10674 10672 10669 10666 10664 10660 10656 10652 10648 10642 10637 10631 10626 10621 10616 10609 10601 10594 10585 10575 10565 10555 10546 10538 10529 10519 10511 10502 10493 10485 10477 10469 10461 10451 10443 10435 10426 10417 10408
10659 10658 10656 10654 10653 10651 10649 10646 10641 10638 10635 10630 10625 10620 10615 10610 10603 10597 10592 10585 10577 10566 10558 10550 10542 10534 10525 10516 10507 10500 10491 10483 10476 10468 10459 10451 10443 10435 10427 10418 10410 10402 10393
10635 10635 10633 10631 10630 10628 10624 10622 10618 10616 10612 10605 10600 10595 10591 10585 10580 10572 10565 10559 10551 10542 10535 10527 10519 10511 10503 10496 10489 10481 10474 10466 10458 10450 10442 10434 10425 10418 10411 10402 10393 10385 10375
10611 10611 10609 10608 10605 10602 10599 10595 10591 10592 10586 10579 10575 10571 10568 10562 10554 10548 10542 10534 10529 10521 10514 10506 10498 10491 10485 10476 10470 10463 10456 10448 10441 10432 10424 10417 10409 10402 10394 10386 10376 10367 10358